Simultaneous Nadir Overpasses (SNOs) Predictions

Prediction of SNOs between LANDSAT-8 and METOP-B Satellite Orbit:

Table of predicted SNOs for the next 14.0 days since TLE Epoch: 3/12/2016
Index Date (LANDSAT-8) Time (LANDSAT-8) Lat,Lon (LANDSAT-8) SZA (LANDSAT-8 ) Date (METOP-B) Time (METOP-B) Lat,Lon (METOP-B) SZA (METOP-B ) Distance(km) Time Diff (sec)
1 03/12/2016 05:39:57 81.22, 136.17 86.25 03/12/2016 05:40:39 81.22, 136.12 86.26 0.98 42
2 03/15/2016 00:24:45 -81.22, 34.87 94.84 03/15/2016 00:24:19 -81.21, 34.77 94.86 1.79 26
3 03/15/2016 01:14:11 81.22,-157.41 85.16 03/15/2016 01:14:58 81.23,-157.22 85.21 3.27 47
4 03/17/2016 19:58:59 -81.21, 101.21 95.94 03/17/2016 19:58:39 -81.21, 101.06 95.97 2.75 20
5 03/17/2016 20:48:24 81.24, -90.72 84.11 03/17/2016 20:49:17 81.24, -90.59 84.14 2.08 53
6 03/20/2016 15:33:13 -81.20, 167.46 97.06 03/20/2016 15:32:59 -81.20, 167.30 97.08 2.65 14
7 03/20/2016 16:22:37 81.23, -24.50 82.99 03/20/2016 16:23:36 81.23, -24.39 83.03 2.00 59
8 03/23/2016 11:07:25 -81.21,-126.02 98.13 03/23/2016 11:07:17 -81.21,-126.10 98.14 1.35 8




NCC Satellite Simultaneous Nadir Overpasses (SNOs) Prediction Service
